#timestamp,LO_Frequency,Hit,StdDev 
1581786015.5,286046996.6,N
1581786035.3,286046997.0,N
1581786055.1,286046999.3,N
1581786075.9,286047000.6,N
1581786095.7,286046998.5,N
1581786115.6,286047000.2,N
1581786135.4,286047000.0,N
1581786155.2,286046999.8,N
1581786175.1,286047002.6,N
1581786176.0,286047002.6,N
1581786195.8,286047002.5,N
1581786215.7,286046999.7,N
1581786235.5,286047000.1,N
1581786255.3,286047002.2,N
1581786275.2,286047001.3,N
1581786295.0,286047002.5,N
1581786295.9,286047002.5,N
1581786315.8,286047000.2,N
1581786335.6,286047002.7,N
1581786355.4,286047001.2,N
1581786375.3,286047002.7,N
1581786395.1,286047001.8,N
1581786396.0,286047001.8,N
1581786415.8,286047004.1,N
1581786435.7,286047001.6,N
1581786455.5,286047000.0,N
1581786475.4,286047002.4,N
1581786495.2,286047000.4,N
1581786515.0,286047001.0,N
1581786515.9,286047001.0,N
1581786535.8,286047001.0,N
1581786555.6,286047002.3,N
1581786575.4,286047002.0,N
1581786595.3,286047001.6,N
1581786615.1,286047001.7,N
1581786635.9,286047002.0,N
1581786655.7,286047000.6,N
1581786675.5,286047001.0,N
1581786695.4,286046999.9,N
1581786715.2,286047003.9,Y
1581786735.0,286047000.1,P
1581786735.9,286047000.1,N
1581786755.8,286047000.1,N
1581786775.6,286047000.7,N
1581786795.5,286047000.7,N
1581786815.3,286047000.3,N
1581786835.1,286046998.7,N
1581786855.9,286046997.1,Y
1581786875.7,286046997.0,P
1581786895.6,286046999.9,N
1581786915.4,286047002.5,N
1581786935.2,286047002.5,N
1581786955.1,286047002.2,N
1581786956.0,286047002.2,N
1581786975.8,286046998.3,N
1581786995.6,286047001.2,N
1581787015.5,286046999.3,N
1581787035.3,286046999.0,N
1581787055.2,286046996.1,N
1581787075.9,286046996.1,N
1581787095.7,286046997.9,N
1581787115.6,286046996.2,N
1581787135.4,286046997.9,N
1581787155.2,286046995.6,N
1581787175.1,286046995.0,N
1581787176.0,286046995.0,N
1581787195.8,286046997.3,N
1581787215.7,286046996.8,N
1581787235.5,286046999.5,N
1581787255.3,286046997.2,N
1581787275.2,286046996.7,N
1581787295.0,286046997.7,N
1581787295.9,286046997.7,N
1581787315.8,286046995.6,N
1581787335.6,286046995.3,N
1581787355.4,286046994.0,N
1581787375.3,286046992.4,Y
1581787395.1,286046993.3,P
1581787415.8,286046996.0,N
1581787435.7,286046995.7,N
1581787455.5,286046995.0,Y
1581787475.4,286047002.5,P
1581787495.2,286046999.7,N
1581787515.0,286047000.4,N
1581787515.9,286047000.4,N
1581787535.8,286047001.2,N
1581787555.6,286046998.4,N
1581787575.5,286046999.6,N
1581787595.3,286046999.6,N
1581787615.1,286046996.2,N
1581787635.9,286046994.4,N
1581787655.7,286046994.6,N
1581787675.6,286046994.2,N
1581787695.4,286046990.5,Y
1581787715.2,286046994.6,P
1581787735.1,286046992.3,P
1581787736.0,286046992.3,P
1581787755.8,286046990.4,Y
1581787775.7,286046999.5,P
1581787795.5,286046997.5,N
1581787815.3,286046997.3,N
1581787835.2,286046999.4,N
1581787855.0,286047000.3,N
1581787855.9,286047000.3,N
1581787875.8,286047000.3,N
1581787895.6,286047000.9,N
1581787915.4,286046998.9,N
1581787935.3,286046998.7,N
1581787955.1,286046997.5,N
1581787975.9,286046997.9,N
1581787995.7,286046997.2,N
1581788015.5,286046997.0,N
1581788035.4,286046997.1,N
1581788055.2,286046996.2,N
1581788075.0,286046993.3,Y
1581788076.0,286046993.3,P
1581788095.8,286046996.2,N
1581788115.6,286046997.4,N
1581788135.5,286046994.9,N
1581788155.3,286046995.9,N
1581788175.1,286046995.4,N
1581788195.9,286046996.5,N
1581788215.7,286046998.8,N
1581788235.6,286047000.7,N
1581788255.4,286046998.9,N
1581788275.2,286046999.3,N
1581788295.1,286046999.4,N
1581788296.0,286046999.4,N
1581788315.8,286046999.1,N
1581788335.6,286046998.8,N
1581788355.5,286046998.3,N
1581788375.3,286047000.3,N
1581788395.2,286046999.0,N
1581788415.9,286046999.3,N
1581788435.7,286046998.7,N
1581788455.6,286047001.2,N
1581788475.4,286046998.9,N
1581788495.2,286047001.1,N
1581788515.1,286046995.5,N
1581788516.0,286046995.5,N
1581788535.8,286046996.2,N
1581788555.7,286046993.7,Y
1581788575.5,286046999.3,P
1581788595.3,286047001.0,N
1581788615.2,286047001.1,N
1581788635.0,286046999.7,N
1581788635.9,286046999.7,N
1581788655.8,286047000.6,N
1581788675.6,286047000.0,N
1581788695.4,286046999.7,N
1581788715.3,286047004.4,Y
1581788735.1,286047006.0,P
1581788755.9,286047003.3,N
1581788775.7,286047004.4,N
1581788795.5,286047003.3,N
1581788815.4,286047001.8,N
1581788835.2,286047004.3,N
1581788855.0,286047004.0,N
1581788855.9,286047004.0,N
1581788875.8,286047004.0,N
1581788895.6,286047003.3,N
1581788915.5,286047006.0,Y
1581788935.3,286047000.9,P
1581788955.1,286047000.2,N
1581788975.9,286047000.8,N
1581788995.7,286047000.4,N
1581789015.5,286047000.6,N
1581789035.4,286047000.8,N
1581789055.2,286047000.9,N
1581789075.1,286047001.0,N
1581789076.0,286047001.0,N
1581789095.8,286046998.2,N
1581789115.6,286047001.1,N
1581789135.5,286047002.5,N
1581789155.3,286046998.1,N
1581789175.2,286046999.2,N
1581789195.9,286046998.3,N
1581789215.7,286047000.0,N
1581789235.6,286047002.0,N
1581789255.4,286047002.6,N
1581789275.2,286047001.4,N
1581789295.1,286047003.9,N
1581789296.0,286047003.9,N
1581789315.8,286047003.8,N
1581789335.7,286047004.3,N
1581789355.5,286047001.6,N
1581789375.3,286047000.3,N
1581789395.2,286047004.4,N
1581789415.0,286047004.4,N
1581789415.9,286047004.4,N
1581789435.8,286047001.3,N
1581789455.6,286047003.8,N
1581789475.4,286047002.9,N
1581789495.3,286047004.2,N
1581789515.1,286047004.1,N
1581789535.9,286047005.5,N
1581789555.7,286047004.9,N
1581789575.5,286047005.0,N
1581789595.4,286047005.2,N
